Location: Degersen
(52.2871°N, 9.5716°E)
Time: 00:46:20
(UTC+00:00)

Cosmos 2227 Rocket - Pass Details

Date: 20 January 2026
Orbit: 837 x 845 km, 71.0° (Epoch: 17 February)

Event Time Altitude Azimuth Distance (km) Brightness Sun altitude
Exits shadow 04:56:18 - 343° (NNW) 2,536 4.5 -21.3°
Reaches altitude 10° 04:56:47 10° 347° (NNW) 2,471 4.4 -21.2°
Maximum altitude 04:58:47 12° 8° (N) 2,346 4.5 -20.9°
Drops below altitude 10° 05:00:47 10° 29° (NNE) 2,472 4.9 -20.6°
Sets 05:05:10 0° 61° (ENE) 3,408 6.2 -19.9°
